| time (UTC) | temp F | wind direction | speed knots | gust knots | rain 1hr in | rain 24hr in | rain mn in | humidity % | barometer mb |
| 20260503195517 | 76 | 33 | 1.7 | 4.3 | 0.00 | 0.17 | 0.00 | 61 | 1016.0 |
| 20260503195015 | 76 | 82 | 0.0 | 6.1 | 0.00 | 0.17 | 0.00 | 62 | 1016.0 |
| 20260503194533 | 77 | 56 | 1.7 | 6.1 | 0.00 | 0.17 | 0.00 | 59 | 1016.2 |
| 20260503194016 | 76 | 0 | 0.0 | 4.3 | 0.00 | 0.17 | 0.00 | 60 | 1016.2 |
| 20260503193518 | 77 | 359 | 0.9 | 4.3 | 0.00 | 0.17 | 0.00 | 58 | 1016.5 |
| 20260503193036 | 77 | 29 | 1.7 | 4.3 | 0.00 | 0.17 | 0.00 | 60 | 1016.5 |
| 20260503192514 | 77 | 0 | 0.0 | 4.3 | 0.00 | 0.17 | 0.00 | 63 | 1016.6 |
| 20260503192022 | 76 | 351 | 0.9 | 4.3 | 0.00 | 0.17 | 0.00 | 62 | 1016.7 |
| 20260503191535 | 77 | 25 | 0.9 | 4.3 | 0.00 | 0.17 | 0.00 | 60 | 1016.7 |
| 20260503191016 | 76 | 342 | 0.0 | 7.0 | 0.00 | 0.17 | 0.00 | 63 | 1016.8 |
| 20260503190515 | 76 | 27 | 0.9 | 7.0 | 0.00 | 0.17 | 0.00 | 63 | 1016.9 |
| 20260503190037 | 75 | 349 | 0.9 | 3.5 | 0.00 | 0.17 | 0.00 | 63 | 1016.9 |
| 20260503185516 | 75 | 314 | 0.9 | 3.5 | 0.00 | 0.19 | 0.00 | 63 | 1017.0 |
| 20260503185019 | 76 | 13 | 0.0 | 3.5 | 0.00 | 0.19 | 0.00 | 61 | 1017.0 |
| 20260503184534 | 77 | 49 | 0.9 | 6.1 | 0.00 | 0.19 | 0.00 | 63 | 1017.2 |
| 20260503184014 | 76 | 79 | 1.7 | 6.1 | 0.00 | 0.19 | 0.00 | 64 | 1017.0 |
| 20260503183522 | 76 | 316 | 1.7 | 5.2 | 0.00 | 0.19 | 0.00 | 65 | 1017.0 |
| 20260503183039 | 76 | 304 | 2.6 | 5.2 | 0.00 | 0.19 | 0.00 | 65 | 1017.2 |
| 20260503182513 | 75 | 281 | 1.7 | 6.1 | 0.00 | 0.19 | 0.00 | 67 | 1017.2 |
| 20260503182015 | 75 | 69 | 1.7 | 6.1 | 0.00 | 0.19 | 0.00 | 67 | 1017.2 |
| 20260503181606 | 74 | 360 | 0.9 | 4.3 | 0.00 | 0.19 | 0.00 | 68 | 1017.3 |
| 20260503181019 | 75 | 354 | 1.7 | 4.3 | 0.00 | 0.19 | 0.00 | 66 | 1017.4 |
| 20260503180514 | 74 | 117 | 0.0 | 5.2 | 0.00 | 0.19 | 0.00 | 69 | 1017.4 |
| 20260503180031 | 75 | 20 | 1.7 | 5.2 | 0.00 | 0.19 | 0.00 | 67 | 1017.6 |
| 20260503175513 | 76 | 347 | 0.9 | 4.3 | 0.00 | 0.19 | 0.00 | 65 | 1017.5 |
| 20260503175015 | 76 | 310 | 1.7 | 3.5 | 0.00 | 0.19 | 0.00 | 66 | 1017.5 |
| 20260503174537 | 75 | 210 | 0.9 | 4.3 | 0.00 | 0.19 | 0.00 | 70 | 1017.5 |
| 20260503174016 | 74 | 295 | 0.9 | 4.3 | 0.00 | 0.19 | 0.00 | 70 | 1017.5 |
| 20260503173514 | 74 | 10 | 1.7 | 7.8 | 0.00 | 0.19 | 0.00 | 69 | 1017.6 |
| 20260503173050 | 74 | 22 | 0.9 | 7.8 | 0.00 | 0.19 | 0.00 | 70 | 1017.6 |
| 20260503172515 | 74 | 333 | 1.7 | 7.8 | 0.00 | 0.19 | 0.00 | 70 | 1017.6 |
| 20260503172014 | 74 | 76 | 1.7 | 5.2 | 0.00 | 0.19 | 0.00 | 71 | 1017.7 |
| 20260503171534 | 73 | 69 | 1.7 | 5.2 | 0.00 | 0.19 | 0.00 | 74 | 1017.8 |
| 20260503171016 | 72 | 44 | 1.7 | 5.2 | 0.00 | 0.19 | 0.00 | 73 | 1017.8 |
| 20260503170517 | 73 | 319 | 1.7 | 4.3 | 0.00 | 0.19 | 0.00 | 73 | 1017.8 |
| 20260503151013 | 72 | 307 | 2.6 | 7.0 | 0.00 | 0.19 | 0.00 | 77 | 1017.7 |
| 20260503150520 | 71 | 341 | 1.7 | 7.0 | 0.00 | 0.19 | 0.00 | 79 | 1017.7 |
| 20260503131016 | 65 | 348 | 0.0 | 2.6 | 0.00 | 0.19 | 0.00 | 92 | 1017.0 |
| 20260503130516 | 65 | 331 | 0.0 | 3.5 | 0.00 | 0.19 | 0.00 | 93 | 1016.8 |
| 20260503110517 | 60 | 0 | 0.0 | 0.9 | 0.00 | 0.19 | 0.00 | 100 | 1015.8 |
| 20260503081537 | 61 | 0 | 0.0 | 0.0 | 0.00 | 0.19 | 0.00 | 100 | 1014.3 |
| 20260503081017 | 61 | 0 | 0.0 | 0.9 | 0.00 | 0.19 | 0.00 | 100 | 1014.0 |
| 20260503080517 | 61 | 0 | 0.0 | 0.9 | 0.00 | 0.19 | 0.00 | 100 | 1014.2 |
| 20260503072516 | 61 | 0 | 0.0 | 0.0 | 0.00 | 0.19 | 0.00 | 100 | 1014.2 |
| 20260503072016 | 61 | 0 | 0.0 | 0.0 | 0.00 | 0.19 | 0.00 | 100 | 1014.3 |
| 20260503071537 | 61 | 0 | 0.0 | 0.0 | 0.00 | 0.19 | 0.00 | 100 | 1014.3 |
| 20260503071014 | 61 | 0 | 0.0 | 0.0 | 0.00 | 0.19 | 0.00 | 100 | 1014.3 |
| 20260503070515 | 61 | 0 | 0.0 | 0.0 | 0.00 | 0.19 | 0.00 | 100 | 1014.3 |
| 20260503055016 | 62 | 0 | 0.0 | 0.9 | 0.00 | 0.19 | 0.00 | 100 | 1014.4 |
| 20260503054532 | 62 | 0 | 0.0 | 0.9 | 0.00 | 0.19 | 0.00 | 100 | 1014.3 |
| 20260503054014 | 63 | 0 | 0.0 | 0.9 | 0.00 | 0.19 | 0.00 | 100 | 1014.5 |
| 20260503053514 | 63 | 296 | 0.0 | 0.9 | 0.00 | 0.19 | 0.00 | 100 | 1014.5 |
| 20260503053038 | 63 | 0 | 0.0 | 0.0 | 0.00 | 0.19 | 0.00 | 100 | 1014.5 |
| 20260503052521 | 63 | 0 | 0.0 | 0.0 | 0.00 | 0.19 | 0.00 | 100 | 1014.4 |
| 20260503052017 | 63 | 0 | 0.0 | 0.0 | 0.00 | 0.19 | 0.00 | 100 | 1014.5 |
| 20260503051534 | 63 | 0 | 0.0 | 0.0 | 0.00 | 0.19 | 0.00 | 100 | 1014.5 |
| 20260503051018 | 63 | 0 | 0.0 | 0.0 | 0.00 | 0.19 | 0.00 | 100 | 1014.3 |
| 20260503050516 | 63 | 0 | 0.0 | 0.9 | 0.00 | 0.19 | 0.00 | 100 | 1014.4 |
| 20260503050036 | 63 | 0 | 0.0 | 0.9 | 0.00 | 0.19 | 0.00 | 100 | 1014.4 |
| 20260503045515 | 63 | 0 | 0.0 | 0.9 | 0.00 | 0.19 | 0.00 | 100 | 1014.2 |
| 20260503045014 | 63 | 0 | 0.0 | 0.9 | 0.00 | 0.19 | 0.00 | 100 | 1014.2 |
| 20260503044604 | 63 | 0 | 0.0 | 1.7 | 0.00 | 0.19 | 0.00 | 100 | 1014.1 |
| 20260503044014 | 63 | 0 | 0.0 | 1.7 | 0.00 | 0.19 | 0.00 | 100 | 1014.0 |
| 20260503043513 | 63 | 0 | 0.0 | 1.7 | 0.00 | 0.19 | 0.00 | 100 | 1013.9 |
| 20260503043033 | 63 | 0 | 0.0 | 1.7 | 0.00 | 0.19 | 0.00 | 100 | 1013.7 |
| 20260503042514 | 63 | 0 | 0.0 | 0.9 | 0.00 | 0.19 | 0.00 | 100 | 1013.6 |
| 20260503042015 | 63 | 0 | 0.0 | 0.0 | 0.00 | 0.19 | 0.00 | 100 | 1013.8 |
| 20260503041533 | 63 | 0 | 0.0 | 0.0 | 0.00 | 0.19 | 0.00 | 100 | 1013.7 |
| 20260503041018 | 63 | 0 | 0.0 | 0.9 | 0.00 | 0.19 | 0.00 | 100 | 1013.7 |
| 20260503040514 | 63 | 0 | 0.0 | 0.9 | 0.00 | 0.19 | 0.00 | 100 | 1013.7 |
| 20260503040034 | 63 | 292 | 0.0 | 0.9 | 0.00 | 0.19 | 0.00 | 100 | 1013.5 |
| 20260503035515 | 63 | 0 | 0.0 | 0.9 | 0.00 | 0.19 | 0.19 | 100 | 1013.6 |
| 20260503035014 | 63 | 0 | 0.0 | 1.7 | 0.00 | 0.19 | 0.19 | 100 | 1013.5 |
| 20260503034535 | 63 | 0 | 0.0 | 1.7 | 0.00 | 0.19 | 0.19 | 100 | 1013.5 |
| 20260503034013 | 64 | 276 | 0.0 | 0.9 | 0.00 | 0.19 | 0.19 | 100 | 1013.1 |
| 20260503033515 | 64 | 0 | 0.0 | 3.5 | 0.00 | 0.19 | 0.19 | 100 | 1013.0 |
| 20260503033037 | 64 | 0 | 0.0 | 3.5 | 0.00 | 0.19 | 0.19 | 100 | 1013.0 |
| 20260503032515 | 64 | 247 | 0.0 | 4.3 | 0.00 | 0.19 | 0.19 | 100 | 1013.0 |
| 20260503032017 | 64 | 326 | 0.9 | 4.3 | 0.00 | 0.19 | 0.19 | 100 | 1012.9 |
| 20260503031532 | 64 | 0 | 0.0 | 2.6 | 0.01 | 0.19 | 0.19 | 100 | 1012.8 |
| 20260503031016 | 64 | 125 | 0.0 | 2.6 | 0.01 | 0.19 | 0.19 | 100 | 1012.8 |
| 20260503030518 | 64 | 325 | 0.0 | 2.6 | 0.01 | 0.19 | 0.19 | 99 | 1012.8 |
| 20260503030040 | 65 | 17 | 0.0 | 2.6 | 0.01 | 0.19 | 0.19 | 100 | 1012.7 |
| 20260503025515 | 65 | 4 | 0.0 | 2.6 | 0.01 | 0.19 | 0.19 | 99 | 1012.7 |
| 20260503025016 | 65 | 230 | 0.9 | 3.5 | 0.02 | 0.19 | 0.19 | 99 | 1012.7 |
| 20260503024533 | 66 | 0 | 0.9 | 3.5 | 0.02 | 0.19 | 0.19 | 99 | 1012.4 |
| 20260503024015 | 66 | 347 | 0.0 | 3.5 | 0.02 | 0.19 | 0.19 | 100 | 1012.3 |
| 20260503023519 | 66 | 22 | 0.0 | 3.5 | 0.02 | 0.19 | 0.19 | 100 | 1012.1 |
| 20260503023040 | 67 | 259 | 0.0 | 2.6 | 0.02 | 0.19 | 0.19 | 100 | 1011.9 |
| 20260503022516 | 67 | 0 | 0.0 | 2.6 | 0.02 | 0.19 | 0.19 | 100 | 1011.9 |
| 20260503022020 | 67 | 0 | 0.0 | 2.6 | 0.01 | 0.18 | 0.18 | 100 | 1011.9 |
| 20260503021535 | 67 | 38 | 0.0 | 1.7 | 0.01 | 0.18 | 0.18 | 100 | 1011.3 |
| 20260503021020 | 67 | 0 | 0.0 | 1.7 | 0.01 | 0.18 | 0.18 | 100 | 1011.4 |
| 20260503020517 | 67 | 0 | 0.0 | 2.6 | 0.01 | 0.18 | 0.18 | 100 | 1011.4 |
| 20260503020036 | 68 | 0 | 0.0 | 2.6 | 0.01 | 0.18 | 0.18 | 100 | 1011.6 |
| 20260503015513 | 68 | 351 | 0.9 | 3.5 | 0.01 | 0.18 | 0.18 | 100 | 1011.7 |
| 20260503015020 | 68 | 342 | 0.0 | 3.5 | 0.00 | 0.17 | 0.17 | 100 | 1011.6 |
| 20260503014531 | 68 | 356 | 0.0 | 3.5 | 0.00 | 0.17 | 0.17 | 100 | 1011.2 |
| 20260503014013 | 68 | 27 | 0.0 | 2.6 | 0.00 | 0.17 | 0.17 | 100 | 1011.1 |
| 20260503013514 | 68 | 0 | 0.0 | 0.0 | 0.00 | 0.17 | 0.17 | 100 | 1010.7 |
| 20260503013033 | 68 | 0 | 0.0 | 0.0 | 0.00 | 0.17 | 0.17 | 100 | 1010.6 |
| 20260503012520 | 68 | 0 | 0.0 | 0.0 | 0.00 | 0.17 | 0.17 | 100 | 1010.4 |
| 20260503012015 | 68 | 0 | 0.0 | 0.0 | 0.00 | 0.17 | 0.17 | 100 | 1010.6 |
| 20260503011533 | 68 | 0 | 0.0 | 0.0 | 0.00 | 0.17 | 0.17 | 100 | 1010.7 |
| 20260503011015 | 68 | 0 | 0.0 | 0.0 | 0.00 | 0.17 | 0.17 | 100 | 1010.7 |
| 20260503010513 | 68 | 0 | 0.0 | 0.0 | 0.00 | 0.17 | 0.17 | 100 | 1010.5 |
| 20260503010037 | 68 | 0 | 0.0 | 0.0 | 0.00 | 0.17 | 0.17 | 100 | 1010.3 |
| 20260503005518 | 68 | 0 | 0.0 | 0.0 | 0.00 | 0.17 | 0.17 | 100 | 1010.3 |
| 20260503005013 | 68 | 0 | 0.0 | 0.0 | 0.00 | 0.17 | 0.17 | 100 | 1010.3 |
| 20260503004535 | 68 | 0 | 0.0 | 0.0 | 0.00 | 0.17 | 0.17 | 100 | 1010.2 |
| 20260503004016 | 68 | 0 | 0.0 | 0.0 | 0.00 | 0.17 | 0.17 | 100 | 1010.2 |
| 20260503003516 | 68 | 0 | 0.0 | 0.0 | 0.00 | 0.17 | 0.17 | 100 | 1010.2 |
| 20260503003043 | 68 | 0 | 0.0 | 0.0 | 0.00 | 0.17 | 0.17 | 100 | 1010.3 |
| 20260503002514 | 68 | 0 | 0.0 | 0.0 | 0.00 | 0.17 | 0.17 | 100 | 1010.2 |
| 20260503002013 | 69 | 0 | 0.0 | 0.0 | 0.00 | 0.17 | 0.17 | 100 | 1010.2 |
| 20260503001532 | 69 | 0 | 0.0 | 0.0 | 0.00 | 0.17 | 0.17 | 100 | 1010.1 |
| 20260503001015 | 69 | 0 | 0.0 | 0.0 | 0.00 | 0.17 | 0.17 | 100 | 1010.0 |
| 20260503000515 | 69 | 0 | 0.0 | 0.0 | 0.00 | 0.17 | 0.17 | 100 | 1010.0 |
| 20260503000043 | 69 | 0 | 0.0 | 0.0 | 0.00 | 0.17 | 0.17 | 100 | 1010.1 |
| 20260502235515 | 69 | 0 | 0.0 | 0.0 | 0.00 | 0.17 | 0.17 | 100 | 1010.0 |
| 20260502235014 | 69 | 0 | 0.0 | 0.0 | 0.00 | 0.17 | 0.17 | 100 | 1009.9 |
| 20260502234548 | 69 | 0 | 0.0 | 0.0 | 0.00 | 0.17 | 0.17 | 100 | 1009.5 |
| 20260502234016 | 69 | 0 | 0.0 | 0.0 | 0.00 | 0.17 | 0.17 | 100 | 1009.5 |
| 20260502233514 | 69 | 0 | 0.0 | 0.0 | 0.00 | 0.17 | 0.17 | 100 | 1009.5 |
| 20260502233035 | 69 | 0 | 0.0 | 0.0 | 0.00 | 0.17 | 0.17 | 100 | 1009.6 |
| 20260502232514 | 69 | 0 | 0.0 | 0.0 | 0.00 | 0.17 | 0.17 | 100 | 1009.6 |
| 20260502232014 | 69 | 0 | 0.0 | 0.0 | 0.00 | 0.17 | 0.17 | 100 | 1009.6 |
| 20260502231535 | 69 | 0 | 0.0 | 0.0 | 0.00 | 0.17 | 0.17 | 100 | 1009.6 |
| 20260502231018 | 69 | 0 | 0.0 | 0.0 | 0.00 | 0.17 | 0.17 | 100 | 1009.6 |
| 20260502230514 | 69 | 0 | 0.0 | 0.0 | 0.00 | 0.17 | 0.17 | 100 | 1009.6 |
| 20260502230035 | 69 | 0 | 0.0 | 0.0 | 0.00 | 0.17 | 0.17 | 100 | 1009.4 |
| 20260502225515 | 69 | 0 | 0.0 | 0.0 | 0.00 | 0.17 | 0.17 | 100 | 1009.4 |
| 20260502225015 | 69 | 0 | 0.0 | 2.6 | 0.00 | 0.17 | 0.17 | 100 | 1009.1 |
| 20260502224533 | 69 | 0 | 0.0 | 3.5 | 0.00 | 0.17 | 0.17 | 100 | 1009.1 |
| 20260502224019 | 69 | 0 | 0.0 | 3.5 | 0.00 | 0.17 | 0.17 | 100 | 1009.2 |
| 20260502223515 | 69 | 0 | 0.0 | 0.9 | 0.00 | 0.17 | 0.17 | 100 | 1009.2 |
| 20260502223040 | 69 | 0 | 0.0 | 0.0 | 0.00 | 0.17 | 0.17 | 100 | 1008.9 |
| 20260502222516 | 69 | 0 | 0.0 | 0.0 | 0.00 | 0.17 | 0.17 | 100 | 1008.5 |
| 20260502222016 | 69 | 0 | 0.0 | 0.9 | 0.00 | 0.17 | 0.17 | 100 | 1008.6 |
| 20260502221536 | 69 | 0 | 0.0 | 0.9 | 0.00 | 0.17 | 0.17 | 100 | 1008.8 |
| 20260502221016 | 69 | 0 | 0.0 | 0.9 | 0.00 | 0.17 | 0.17 | 100 | 1008.6 |
| 20260502220514 | 69 | 0 | 0.0 | 0.9 | 0.00 | 0.17 | 0.17 | 100 | 1008.4 |
| 20260502220039 | 69 | 0 | 0.0 | 0.9 | 0.00 | 0.17 | 0.17 | 100 | 1009.1 |
| 20260502215515 | 69 | 0 | 0.0 | 0.9 | 0.00 | 0.17 | 0.17 | 100 | 1008.5 |
| 20260502215015 | 69 | 0 | 0.0 | 0.9 | 0.00 | 0.17 | 0.17 | 100 | 1008.5 |
| 20260502214545 | 69 | 0 | 0.0 | 0.9 | 0.00 | 0.17 | 0.17 | 100 | 1008.6 |
| 20260502214019 | 69 | 0 | 0.0 | 0.9 | 0.00 | 0.17 | 0.17 | 100 | 1008.6 |
| 20260502213516 | 69 | 209 | 0.0 | 0.9 | 0.00 | 0.17 | 0.17 | 100 | 1008.6 |
| 20260502213039 | 69 | 0 | 0.0 | 0.0 | 0.01 | 0.17 | 0.17 | 100 | 1008.5 |
| 20260502212516 | 69 | 0 | 0.0 | 0.0 | 0.02 | 0.17 | 0.17 | 100 | 1008.3 |
| 20260502212017 | 69 | 0 | 0.0 | 0.9 | 0.02 | 0.17 | 0.17 | 100 | 1008.2 |
| 20260502211536 | 69 | 0 | 0.0 | 1.7 | 0.03 | 0.17 | 0.17 | 100 | 1008.2 |
| 20260502211016 | 69 | 0 | 0.0 | 1.7 | 0.04 | 0.17 | 0.17 | 100 | 1008.2 |
| 20260502210520 | 69 | 0 | 0.0 | 1.7 | 0.05 | 0.17 | 0.17 | 100 | 1008.0 |
| 20260502210036 | 68 | 0 | 0.0 | 1.7 | 0.05 | 0.17 | 0.17 | 100 | 1007.9 |
| 20260502205522 | 68 | 0 | 0.0 | 1.7 | 0.06 | 0.17 | 0.17 | 100 | 1008.2 |
| 20260502205018 | 68 | 0 | 0.0 | 3.5 | 0.07 | 0.17 | 0.17 | 100 | 1008.2 |
| 20260502204538 | 68 | 0 | 0.0 | 3.5 | 0.07 | 0.17 | 0.17 | 99 | 1007.8 |
| 20260502204018 | 68 | 0 | 0.0 | 4.3 | 0.08 | 0.17 | 0.17 | 99 | 1008.8 |
| 20260502203516 | 68 | 177 | 0.9 | 4.3 | 0.08 | 0.17 | 0.17 | 99 | 1009.0 |
| 20260502203056 | 68 | 0 | 0.0 | 2.6 | 0.08 | 0.16 | 0.16 | 99 | 1008.7 |
| 20260502202515 | 68 | 0 | 0.0 | 5.2 | 0.08 | 0.15 | 0.15 | 99 | 1009.1 |
| 20260502202015 | 68 | 278 | 0.0 | 5.2 | 0.09 | 0.15 | 0.15 | 99 | 1009.2 |
| 20260502201537 | 68 | 149 | 0.9 | 5.2 | 0.08 | 0.14 | 0.14 | 99 | 1009.2 |
| 20260502201013 | 68 | 0 | 0.0 | 1.7 | 0.08 | 0.13 | 0.13 | 99 | 1009.1 |
| 20260502200515 | 68 | 0 | 0.0 | 1.7 | 0.08 | 0.12 | 0.12 | 99 | 1009.2 |
| 20260502200038 | 68 | 0 | 0.0 | 1.7 | 0.10 | 0.12 | 0.12 | 99 | 1009.4 |